| time (UTC) | temp F | wind direction | speed MPH | gust MPH | rain 1hr in | rain 24hr in | rain mn in | humidity % | barometer mb |
| 20260504180100 | 73 | 267 | 0.0 | 0.0 | 0.00 | 0.00 | 0.00 | 44 | 1009.2 |
| 20260504174559 | 74 | 267 | 6.0 | 0.0 | 0.00 | 0.00 | 0.00 | 41 | 1009.3 |
| 20260504173100 | 74 | 207 | 7.0 | 0.0 | 0.00 | 0.00 | 0.00 | 32 | 1009.7 |
| 20260504171559 | 74 | 193 | 9.0 | 0.0 | 0.00 | 0.00 | 0.00 | 32 | 1009.7 |
| 20260504081551 | 76 | 187 | 3.0 | 0.0 | 0.00 | 0.00 | 0.00 | 35 | 1006.9 |
| 20260504044537 | 81 | 215 | 11.0 | 0.0 | 0.00 | 0.00 | 0.00 | 22 | 1006.5 |
| 20260504043041 | 81 | 211 | 10.0 | 0.0 | 0.00 | 0.00 | 0.00 | 21 | 1006.2 |
| 20260504041535 | 82 | 209 | 10.0 | 0.0 | 0.00 | 0.00 | 0.00 | 21 | 1005.8 |
| 20260504040035 | 82 | 215 | 11.0 | 0.0 | 0.00 | 0.00 | 0.00 | 21 | 1005.5 |
| 20260504034535 | 83 | 209 | 11.0 | 0.0 | 0.00 | 0.00 | 0.00 | 19 | 1005.0 |
| 20260504033034 | 84 | 219 | 11.0 | 0.0 | 0.00 | 0.00 | 0.00 | 19 | 1004.8 |
| 20260504031535 | 84 | 218 | 10.0 | 0.0 | 0.00 | 0.00 | 0.00 | 18 | 1004.3 |
| 20260504030034 | 85 | 211 | 11.0 | 0.0 | 0.00 | 0.00 | 0.00 | 17 | 1004.0 |
| 20260504024535 | 85 | 226 | 15.0 | 0.0 | 0.00 | 0.00 | 0.00 | 16 | 1003.8 |
| 20260504023035 | 86 | 210 | 14.0 | 0.0 | 0.00 | 0.00 | 0.00 | 15 | 1003.3 |
| 20260504021532 | 87 | 217 | 13.0 | 0.0 | 0.00 | 0.00 | 0.00 | 15 | 1003.0 |
| 20260504020041 | 88 | 203 | 15.0 | 0.0 | 0.00 | 0.00 | 0.00 | 15 | 1002.8 |
| 20260504014539 | 90 | 192 | 11.0 | 0.0 | 0.00 | 0.00 | 0.00 | 13 | 1002.6 |
| 20260504013037 | 90 | 217 | 12.0 | 0.0 | 0.00 | 0.00 | 0.00 | 13 | 1002.7 |
| 20260504011531 | 91 | 206 | 12.0 | 0.0 | 0.00 | 0.00 | 0.00 | 13 | 1002.7 |
| 20260504010030 | 92 | 213 | 11.0 | 0.0 | 0.00 | 0.00 | 0.00 | 13 | 1002.7 |
| 20260504004534 | 92 | 221 | 9.0 | 0.0 | 0.00 | 0.00 | 0.00 | 12 | 1002.7 |
| 20260504003029 | 92 | 222 | 13.0 | 0.0 | 0.00 | 0.00 | 0.00 | 13 | 1002.6 |
| 20260504001529 | 93 | 224 | 10.0 | 0.0 | 0.00 | 0.00 | 0.00 | 13 | 1002.5 |
| 20260504000028 | 94 | 218 | 8.0 | 0.0 | 0.00 | 0.00 | 0.00 | 13 | 1002.5 |
| 20260503234528 | 93 | 229 | 10.0 | 0.0 | 0.00 | 0.00 | 0.00 | 13 | 1002.5 |
| 20260503233025 | 93 | 224 | 7.0 | 0.0 | 0.00 | 0.00 | 0.00 | 13 | 1002.6 |
| 20260503231524 | 93 | 134 | 7.0 | 0.0 | 0.00 | 0.00 | 0.00 | 14 | 1003.0 |
| 20260503230028 | 93 | 210 | 8.0 | 0.0 | 0.00 | 0.00 | 0.00 | 14 | 1003.2 |
| 20260503224522 | 93 | 183 | 8.0 | 0.0 | 0.00 | 0.00 | 0.00 | 14 | 1003.7 |
| 20260503223022 | 93 | 225 | 9.0 | 0.0 | 0.00 | 0.00 | 0.00 | 14 | 1003.9 |
| 20260503221520 | 92 | 202 | 12.0 | 0.0 | 0.00 | 0.00 | 0.00 | 14 | 1004.2 |
| 20260503220020 | 92 | 200 | 9.0 | 0.0 | 0.00 | 0.00 | 0.00 | 14 | 1004.3 |
| 20260503214519 | 92 | 229 | 5.0 | 0.0 | 0.00 | 0.00 | 0.00 | 15 | 1004.7 |
| 20260503213017 | 91 | 187 | 8.0 | 0.0 | 0.00 | 0.00 | 0.00 | 16 | 1005.0 |
| 20260503211515 | 92 | 179 | 11.0 | 0.0 | 0.00 | 0.00 | 0.00 | 15 | 1005.3 |
| 20260503210014 | 91 | 199 | 7.0 | 0.0 | 0.00 | 0.00 | 0.00 | 16 | 1005.5 |
| 20260503204513 | 91 | 239 | 8.0 | 0.0 | 0.00 | 0.00 | 0.00 | 16 | 1005.8 |
| 20260503203032 | 91 | 149 | 10.0 | 0.0 | 0.00 | 0.00 | 0.00 | 17 | 1005.9 |
| 20260503201510 | 90 | 177 | 10.0 | 0.0 | 0.00 | 0.00 | 0.00 | 17 | 1006.1 |
| 20260503200012 | 90 | 171 | 10.0 | 0.0 | 0.00 | 0.00 | 0.00 | 17 | 1006.3 |
| 20260503194507 | 89 | 196 | 7.0 | 0.0 | 0.00 | 0.00 | 0.00 | 19 | 1006.5 |
| 20260503193004 | 89 | 190 | 7.0 | 0.0 | 0.00 | 0.00 | 0.00 | 21 | 1007.0 |
| 20260503191503 | 89 | 134 | 8.0 | 0.0 | 0.00 | 0.00 | 0.00 | 22 | 1007.0 |
| 20260503190110 | 88 | 184 | 7.0 | 0.0 | 0.00 | 0.00 | 0.00 | 23 | 1007.2 |
| 20260503184604 | 87 | 142 | 9.0 | 0.0 | 0.00 | 0.00 | 0.00 | 23 | 1007.6 |
| 20260503183056 | 87 | 147 | 9.0 | 0.0 | 0.00 | 0.00 | 0.00 | 22 | 1007.8 |
| 20260503181600 | 87 | 146 | 8.0 | 0.0 | 0.00 | 0.00 | 0.00 | 21 | 1008.0 |